EW4670 Weather Reports


time (UTC)temp
F
wind
direction
speed
knots
gust
knots
rain 1hr
in
rain 24hr
in
rain mn
in
humidity
%
barometer
mb
20260507101558 71 223 2.6 7.0 0.00 0.06 0.04 55 1013.5
20260507100556 70 218 4.3 12.2 0.00 0.06 0.04 56 1013.5
20260507095536 71 186 2.6 10.4 0.00 0.06 0.04 56 1013.4
20260507094535 69 195 3.5 7.0 0.00 0.06 0.04 58 1013.5
20260507093536 70 209 2.6 7.0 0.00 0.06 0.04 58 1013.5
20260507092534 69 249 1.7 4.3 0.00 0.06 0.04 58 1013.4
20260507091534 69 228 2.6 4.3 0.00 0.06 0.04 59 1013.4
20260507090534 67 245 3.5 8.7 0.00 0.06 0.04 62 1013.4
20260507085554 67 252 4.3 8.7 0.00 0.06 0.04 63 1013.4
20260507084533 66 243 3.5 9.6 0.00 0.06 0.04 64 1013.3
20260507083533 66 220 4.3 9.6 0.00 0.06 0.04 66 1013.2
20260507082532 66 240 4.3 8.7 0.00 0.06 0.04 66 1013.2
20260507081532 65 210 4.3 9.6 0.00 0.06 0.04 66 1013.1
20260507080551 65 242 2.6 7.0 0.00 0.06 0.04 67 1013.0
20260507075530 65 215 4.3 8.7 0.00 0.06 0.04 67 1013.0
20260507074550 65 216 4.3 8.7 0.00 0.06 0.04 69 1013.0
20260507073530 64 214 5.2 9.6 0.00 0.06 0.04 69 1012.8
20260507072529 65 209 3.5 8.7 0.00 0.06 0.04 68 1012.7
20260507071530 64 209 4.3 9.6 0.00 0.06 0.04 70 1012.7
20260507070528 64 223 3.5 8.7 0.00 0.06 0.04 71 1012.7
20260507065528 63 219 5.2 9.6 0.00 0.06 0.04 73 1012.7
20260507064527 62 221 2.6 7.0 0.00 0.06 0.04 76 1012.7
20260507063527 62 216 5.2 8.7 0.00 0.06 0.04 75 1012.7
20260507062526 61 210 3.5 6.1 0.00 0.06 0.04 77 1012.7
20260507061526 61 235 1.7 3.5 0.00 0.06 0.04 78 1012.7
20260507060526 61 208 2.6 6.1 0.00 0.06 0.04 79 1012.6
20260507055526 60 224 2.6 6.1 0.00 0.06 0.04 80 1012.5
20260507054545 60 211 2.6 4.3 0.00 0.06 0.04 80 1012.4
20260507053525 60 216 2.6 6.1 0.00 0.06 0.04 81 1012.4
20260507052525 60 211 2.6 7.0 0.00 0.06 0.04 81 1012.2
20260507051554 60 213 2.6 6.1 0.00 0.06 0.04 81 1012.0
20260507050523 60 210 2.6 6.1 0.00 0.06 0.04 81 1011.9
20260507045523 60 210 0.9 3.5 0.00 0.06 0.04 82 1011.8
20260507044522 59 158 0.0 3.5 0.00 0.06 0.04 83 1011.7
20260507043652 59 195 0.0 3.5 0.00 0.06 0.04 83 1011.5
20260507042550 59 0.0 0.0 0.00 0.06 0.04 84 1011.3
20260507041620 59 223 0.9 3.5 0.00 0.06 0.04 84 1011.2
20260507040519 59 198 3.5 6.1 0.00 0.06 0.04 84 1011.2
20260507035519 59 211 2.6 6.1 0.00 0.06 0.04 84 1011.2
20260507034518 59 213 4.3 8.7 0.00 0.06 0.04 83 1011.1
20260507033548 59 215 4.3 8.7 0.00 0.06 0.04 83 1010.9
20260507032518 60 226 4.3 8.7 0.00 0.06 0.04 81 1010.9
20260507031547 60 220 3.5 9.6 0.00 0.06 0.04 81 1010.9
20260507030547 60 216 4.3 9.6 0.00 0.06 0.04 81 1010.9
20260507025515 60 235 1.7 4.3 0.00 0.06 0.04 81 1011.0
20260507024545 60 256 2.6 8.7 0.00 0.06 0.04 81 1011.0
20260507023545 60 225 2.6 7.0 0.00 0.06 0.04 81 1010.9
20260507022544 60 232 2.6 4.3 0.00 0.06 0.04 82 1011.0
20260507021544 60 255 1.7 3.5 0.00 0.06 0.04 82 1010.8
20260507020543 60 248 1.7 4.3 0.00 0.06 0.04 82 1010.8
20260507015543 61 238 1.7 4.3 0.00 0.06 0.04 82 1010.8
20260507014543 60 256 1.7 4.3 0.00 0.06 0.04 82 1010.9
20260507013543 61 247 1.7 6.1 0.00 0.06 0.04 82 1011.0
20260507012541 61 233 2.6 6.1 0.00 0.06 0.04 83 1011.0
20260507011541 60 245 1.7 3.5 0.00 0.06 0.04 85 1011.0
20260507010600 60 252 0.9 2.6 0.00 0.06 0.04 86 1011.0
20260507005540 60 225 0.0 2.6 0.00 0.06 0.04 85 1011.0
20260507004540 61 213 0.9 3.5 0.00 0.06 0.04 85 1011.0
20260507003540 61 215 0.9 3.5 0.00 0.06 0.04 85 1011.0
20260507002538 61 221 1.7 6.1 0.00 0.06 0.04 86 1011.1
20260507001608 61 205 0.0 2.6 0.00 0.06 0.04 86 1011.2
20260507000537 61 215 0.0 2.6 0.03 0.06 0.04 86 1011.3
20260506235537 61 265 0.9 3.5 0.03 0.06 0.04 86 1011.5
20260506234627 60 258 1.7 3.5 0.03 0.06 0.04 87 1011.4
20260506233536 61 243 0.9 3.5 0.04 0.06 0.04 87 1011.5
20260506232556 61 256 1.7 4.3 0.04 0.06 0.04 86 1011.5
20260506231605 61 246 6.1 9.6 0.04 0.06 0.04 85 1011.7
20260506230534 62 221 6.1 13.9 0.01 0.03 0.01 82 1011.9
20260506225534 62 217 5.2 12.2 0.01 0.03 0.01 82 1011.9
20260506224533 62 215 5.2 10.4 0.01 0.03 0.01 82 1011.7
20260506223533 63 207 5.2 10.4 0.00 0.02 0.00 80 1011.6
20260506222552 63 221 5.2 9.6 0.00 0.02 0.00 79 1011.1
20260506221613 63 232 2.6 6.1 0.00 0.02 0.00 80 1010.8
20260506220532 63 237 2.6 7.0 0.00 0.02 0.00 80 1010.7
20260506215531 63 226 2.6 6.1 0.00 0.02 0.02 79 1010.8
20260506214530 63 231 1.7 6.1 0.00 0.02 0.02 80 1010.8
20260506213530 64 218 2.6 8.7 0.00 0.02 0.02 80 1010.9
20260506212550 63 228 3.5 6.1 0.00 0.02 0.02 81 1010.8
20260506211529 63 221 2.6 6.1 0.01 0.02 0.02 83 1010.8
20260506210529 63 216 1.7 3.5 0.02 0.02 0.02 83 1010.7
20260506205529 63 209 1.7 4.3 0.02 0.02 0.02 84 1010.6
20260506204528 63 257 2.6 4.3 0.02 0.02 0.02 84 1010.6
20260506203528 63 263 1.7 3.5 0.02 0.02 0.02 84 1010.8
20260506202527 63 226 3.5 8.7 0.02 0.02 0.02 84 1011.2
20260506201528 63 248 3.5 7.0 0.01 0.01 0.01 84 1011.2
20260506200526 65 240 6.1 12.2 0.00 0.00 0.00 78 1011.3
20260506195526 67 229 7.0 18.2 0.00 0.00 0.00 67 1011.3
20260506194525 69 210 6.1 16.5 0.00 0.00 0.00 58 1010.9
20260506193525 71 222 3.5 8.7 0.00 0.00 0.00 53 1010.4
20260506192555 71 245 1.7 3.5 0.00 0.00 0.00 52 1010.1
20260506191525 71 224 2.6 4.3 0.00 0.00 0.00 52 1010.1
20260506190523 71 214 1.7 4.3 0.00 0.00 0.00 51 1009.9
20260506185523 71 215 2.6 4.3 0.00 0.00 0.00 51 1010.0
20260506184522 71 223 2.6 4.3 0.00 0.00 0.00 50 1010.0
20260506183613 72 224 3.5 6.1 0.00 0.00 0.00 50 1009.8
20260506182552 72 219 2.6 4.3 0.00 0.00 0.00 50 1009.6
20260506181521 72 216 3.5 7.0 0.00 0.00 0.00 49 1009.5
20260506180521 73 231 2.6 6.1 0.00 0.00 0.00 48 1009.5
20260506175519 73 231 2.6 7.0 0.00 0.00 0.00 47 1009.3
20260506174548 74 233 3.5 8.7 0.00 0.00 0.00 47 1009.3
20260506173548 74 227 3.5 7.0 0.00 0.00 0.00 46 1009.3
20260506172547 74 220 2.6 7.0 0.00 0.00 0.00 46 1009.3
20260506171607 75 243 3.5 9.6 0.00 0.00 0.00 45 1009.3
20260506170536 75 229 2.6 7.0 0.00 0.00 0.00 44 1009.3
20260506165547 75 218 3.5 9.6 0.00 0.00 0.00 44 1009.3
20260506164606 76 213 4.3 13.9 0.00 0.00 0.00 44 1009.3
20260506163547 76 217 3.5 8.7 0.00 0.00 0.00 43 1009.4
20260506162544 76 242 5.2 12.2 0.00 0.00 0.00 43 1009.4
20260506161545 76 219 5.2 13.0 0.00 0.00 0.00 42 1009.4
20260506160544 76 209 4.3 9.6 0.00 0.00 0.00 41 1009.4
20260506155543 77 232 5.2 13.0 0.00 0.00 0.00 41 1009.4
20260506154543 76 230 6.1 13.9 0.00 0.00 0.00 41 1009.5
20260506153543 77 226 3.5 10.4 0.00 0.00 0.00 40 1009.5
20260506152542 78 218 4.3 13.0 0.00 0.00 0.00 39 1009.5
20260506151542 78 237 4.3 13.0 0.00 0.00 0.00 39 1009.6
20260506150541 78 198 6.1 10.4 0.00 0.00 0.00 39 1009.5
20260506145621 77 210 7.8 15.6 0.00 0.00 0.00 39 1009.5
20260506144620 77 190 6.1 13.0 0.00 0.00 0.00 39 1009.7
20260506143540 77 209 6.1 13.0 0.00 0.00 0.00 38 1009.7
20260506142600 77 200 7.0 13.9 0.00 0.00 0.00 38 1009.8
20260506141539 77 219 7.0 13.9 0.00 0.00 0.00 38 1009.8
20260506140539 78 216 7.8 16.5 0.00 0.00 0.00 37 1009.8
20260506135538 78 221 7.8 13.9 0.00 0.00 0.00 36 1009.8
20260506134618 78 238 5.2 13.0 0.00 0.00 0.00 36 1009.9
20260506133603 78 236 4.3 19.1 0.00 0.00 0.00 35 1010.0
20260506132537 77 207 7.0 10.4 0.00 0.00 0.00 35 1010.0
20260506131537 78 235 7.8 15.6 0.00 0.00 0.00 35 1010.1
20260506130536 77 213 9.6 15.6 0.00 0.00 0.00 37 1010.2
20260506125535 77 210 7.8 19.1 0.00 0.00 0.00 37 1010.2
20260506124535 77 207 6.1 18.2 0.00 0.00 0.00 36 1010.3
20260506123535 76 227 8.7 16.5 0.00 0.00 0.00 37 1010.3
20260506122534 77 196 10.4 23.5 0.00 0.00 0.00 36 1010.4
20260506121534 77 232 6.1 19.1 0.00 0.00 0.00 37 1010.5
20260506120554 77 195 7.0 16.5 0.00 0.00 0.00 37 1010.6
20260506115553 76 209 7.0 19.1 0.00 0.00 0.00 38 1010.6
20260506114533 75 220 11.3 22.6 0.00 0.00 0.00 39 1010.8
20260506113532 75 203 7.8 16.5 0.00 0.00 0.00 40 1010.8
20260506112531 75 208 6.1 18.2 0.00 0.00 0.00 41 1010.8
20260506111531 76 228 6.1 13.0 0.00 0.00 0.00 43 1010.9
20260506110530 75 209 6.1 15.6 0.00 0.00 0.00 44 1010.9
20260506105530 75 196 7.8 15.6 0.00 0.00 0.00 45 1011.0
20260506104530 75 214 7.0 19.1 0.00 0.00 0.00 44 1011.0
20260506103529 74 225 7.8 16.5 0.00 0.00 0.00 46 1011.0
20260506102638 73 199 7.0 12.2 0.00 0.00 0.00 47 1011.1